| time (UTC) | temp C | wind direction | speed KPH | gust KPH | rain 1hr cm | rain 24hr cm | rain mn cm | humidity % | barometer mb |
| 20260510031036 | 23 | 275 | 0.0 | 0.0 | 0.00 | 0.00 | 0.00 | 48 | 1022.9 |
| 20260510030534 | 23 | 275 | 0.0 | 3.2 | 0.00 | 0.00 | 0.00 | 48 | 1022.9 |
| 20260510030035 | 24 | 275 | 0.0 | 3.2 | 0.00 | 0.00 | 0.00 | 47 | 1022.7 |
| 20260510025534 | 24 | 275 | 0.0 | 1.6 | 0.00 | 0.00 | 0.00 | 47 | 1022.8 |
| 20260510025035 | 25 | 275 | 0.0 | 1.6 | 0.00 | 0.00 | 0.00 | 48 | 1022.7 |
| 20260510024532 | 25 | 275 | 0.0 | 3.2 | 0.00 | 0.00 | 0.00 | 46 | 1022.7 |
| 20260510024029 | 25 | 275 | 0.0 | 4.8 | 0.00 | 0.00 | 0.00 | 46 | 1022.7 |
| 20260510023530 | 25 | 275 | 1.6 | 4.8 | 0.00 | 0.00 | 0.00 | 46 | 1022.8 |
| 20260510023031 | 25 | 275 | 1.6 | 4.8 | 0.00 | 0.00 | 0.00 | 44 | 1022.8 |
| 20260510022528 | 25 | 275 | 1.6 | 4.8 | 0.00 | 0.00 | 0.00 | 44 | 1022.8 |
| 20260510022027 | 25 | 336 | 0.0 | 4.8 | 0.00 | 0.00 | 0.00 | 43 | 1022.8 |
| 20260510021522 | 25 | 83 | 0.0 | 4.8 | 0.00 | 0.00 | 0.00 | 45 | 1022.9 |
| 20260510021021 | 26 | 81 | 1.6 | 4.8 | 0.00 | 0.00 | 0.00 | 45 | 1022.7 |
| 20260510020517 | 26 | 9 | 1.6 | 6.4 | 0.00 | 0.00 | 0.00 | 44 | 1022.7 |
| 20260510020015 | 26 | 42 | 1.6 | 6.4 | 0.00 | 0.00 | 0.00 | 43 | 1022.8 |
| 20260510015517 | 26 | 82 | 0.0 | 4.8 | 0.00 | 0.00 | 0.00 | 43 | 1022.8 |
| 20260510015009 | 26 | 35 | 1.6 | 6.4 | 0.00 | 0.00 | 0.00 | 42 | 1022.8 |
| 20260510014509 | 26 | 37 | 1.6 | 6.4 | 0.00 | 0.00 | 0.00 | 41 | 1022.8 |
| 20260510014010 | 26 | 28 | 1.6 | 6.4 | 0.00 | 0.00 | 0.00 | 39 | 1022.9 |
| 20260510013514 | 26 | 5 | 1.6 | 8.0 | 0.00 | 0.00 | 0.00 | 41 | 1022.9 |
| 20260510013010 | 26 | 21 | 1.6 | 8.0 | 0.00 | 0.00 | 0.00 | 40 | 1023.1 |
| 20260510012511 | 26 | 311 | 3.2 | 6.4 | 0.00 | 0.00 | 0.00 | 38 | 1023.1 |
| 20260510012005 | 26 | 308 | 3.2 | 6.4 | 0.00 | 0.00 | 0.00 | 39 | 1023.0 |
| 20260510011510 | 26 | 325 | 1.6 | 8.0 | 0.00 | 0.00 | 0.00 | 39 | 1023.0 |
| 20260510011004 | 26 | 306 | 3.2 | 11.3 | 0.00 | 0.00 | 0.00 | 41 | 1023.1 |
| 20260510010504 | 26 | 38 | 1.6 | 11.3 | 0.00 | 0.00 | 0.00 | 41 | 1023.1 |
| 20260510010004 | 26 | 24 | 1.6 | 9.7 | 0.00 | 0.00 | 0.00 | 42 | 1023.2 |
| 20260510005505 | 26 | 286 | 1.6 | 9.7 | 0.00 | 0.00 | 0.00 | 40 | 1023.1 |
| 20260510004958 | 26 | 86 | 1.6 | 12.9 | 0.00 | 0.00 | 0.00 | 40 | 1023.3 |
| 20260510004457 | 26 | 42 | 3.2 | 12.9 | 0.00 | 0.00 | 0.00 | 40 | 1023.3 |
| 20260510003958 | 26 | 60 | 3.2 | 9.7 | 0.00 | 0.00 | 0.00 | 41 | 1023.3 |
| 20260510003458 | 26 | 24 | 1.6 | 8.0 | 0.00 | 0.00 | 0.00 | 40 | 1023.3 |
| 20260510002958 | 26 | 294 | 1.6 | 8.0 | 0.00 | 0.00 | 0.00 | 41 | 1023.4 |
| 20260510002458 | 26 | 40 | 1.6 | 6.4 | 0.00 | 0.00 | 0.00 | 40 | 1023.4 |
| 20260510001955 | 27 | 279 | 1.6 | 6.4 | 0.00 | 0.00 | 0.00 | 41 | 1023.5 |
| 20260510001454 | 27 | 298 | 3.2 | 11.3 | 0.00 | 0.00 | 0.00 | 41 | 1023.5 |
| 20260510000955 | 27 | 291 | 3.2 | 11.3 | 0.00 | 0.00 | 0.00 | 42 | 1023.5 |
| 20260510000455 | 27 | 0 | 3.2 | 11.3 | 0.00 | 0.00 | 0.00 | 41 | 1023.6 |
| 20260509235952 | 27 | 286 | 3.2 | 11.3 | 0.00 | 0.00 | 0.00 | 42 | 1023.6 |
| 20260509235453 | 27 | 11 | 3.2 | 8.0 | 0.00 | 0.00 | 0.00 | 43 | 1023.7 |
| 20260509234947 | 26 | 78 | 3.2 | 12.9 | 0.00 | 0.00 | 0.00 | 45 | 1023.7 |
| 20260509234445 | 26 | 276 | 3.2 | 12.9 | 0.00 | 0.00 | 0.00 | 44 | 1023.7 |
| 20260509233946 | 26 | 44 | 1.6 | 8.0 | 0.00 | 0.00 | 0.00 | 48 | 1023.8 |
| 20260509233444 | 26 | 13 | 4.8 | 12.9 | 0.00 | 0.00 | 0.00 | 41 | 1023.9 |
| 20260509232944 | 26 | 37 | 4.8 | 12.9 | 0.00 | 0.00 | 0.00 | 43 | 1023.8 |
| 20260509232445 | 26 | 267 | 3.2 | 8.0 | 0.00 | 0.00 | 0.00 | 44 | 1023.9 |
| 20260509231945 | 26 | 0 | 3.2 | 8.0 | 0.00 | 0.00 | 0.00 | 43 | 1024.0 |
| 20260509231444 | 26 | 301 | 3.2 | 8.0 | 0.00 | 0.00 | 0.00 | 44 | 1024.1 |
| 20260509230944 | 26 | 66 | 3.2 | 16.1 | 0.00 | 0.00 | 0.00 | 46 | 1024.1 |
| 20260509230444 | 26 | 31 | 4.8 | 16.1 | 0.00 | 0.00 | 0.00 | 48 | 1024.1 |
| 20260509225943 | 26 | 9 | 3.2 | 9.7 | 0.00 | 0.00 | 0.00 | 48 | 1024.3 |
| 20260509225442 | 26 | 328 | 3.2 | 9.7 | 0.00 | 0.00 | 0.00 | 48 | 1024.3 |
| 20260509224942 | 26 | 77 | 4.8 | 14.5 | 0.00 | 0.00 | 0.00 | 47 | 1024.4 |
| 20260509224443 | 26 | 5 | 4.8 | 14.5 | 0.00 | 0.00 | 0.00 | 43 | 1024.5 |
| 20260509223939 | 26 | 51 | 3.2 | 12.9 | 0.00 | 0.00 | 0.00 | 47 | 1024.4 |
| 20260509223440 | 26 | 46 | 3.2 | 12.9 | 0.00 | 0.00 | 0.00 | 50 | 1024.5 |
| 20260509222940 | 26 | 54 | 4.8 | 9.7 | 0.00 | 0.00 | 0.00 | 49 | 1024.7 |
| 20260509222439 | 25 | 5 | 4.8 | 14.5 | 0.00 | 0.00 | 0.00 | 50 | 1024.8 |
| 20260509221940 | 25 | 27 | 4.8 | 14.5 | 0.00 | 0.00 | 0.00 | 50 | 1024.9 |
| 20260509221440 | 25 | 338 | 4.8 | 14.5 | 0.00 | 0.00 | 0.00 | 49 | 1025.0 |
| 20260509220940 | 25 | 335 | 6.4 | 16.1 | 0.00 | 0.00 | 0.00 | 51 | 1025.0 |
| 20260509220436 | 25 | 279 | 6.4 | 16.1 | 0.00 | 0.00 | 0.00 | 50 | 1025.2 |
| 20260509215937 | 25 | 24 | 4.8 | 14.5 | 0.00 | 0.00 | 0.00 | 52 | 1025.2 |
| 20260509215436 | 25 | 281 | 4.8 | 12.9 | 0.00 | 0.00 | 0.00 | 50 | 1025.4 |
| 20260509214935 | 25 | 221 | 6.4 | 16.1 | 0.00 | 0.00 | 0.00 | 53 | 1025.5 |
| 20260509214437 | 25 | 338 | 4.8 | 16.1 | 0.00 | 0.00 | 0.00 | 53 | 1025.5 |
| 20260509213931 | 25 | 41 | 4.8 | 12.9 | 0.00 | 0.00 | 0.00 | 53 | 1025.5 |
| 20260509213433 | 25 | 311 | 4.8 | 14.5 | 0.00 | 0.00 | 0.00 | 54 | 1025.6 |
| 20260509212932 | 25 | 5 | 6.4 | 14.5 | 0.00 | 0.00 | 0.00 | 54 | 1025.6 |
| 20260509212431 | 24 | 61 | 4.8 | 12.9 | 0.00 | 0.00 | 0.00 | 56 | 1025.7 |
| 20260509211931 | 24 | 265 | 4.8 | 14.5 | 0.00 | 0.00 | 0.00 | 58 | 1025.8 |
| 20260509211432 | 24 | 311 | 4.8 | 14.5 | 0.00 | 0.00 | 0.00 | 57 | 1025.7 |
| 20260509210928 | 23 | 43 | 4.8 | 14.5 | 0.00 | 0.00 | 0.00 | 59 | 1025.8 |
| 20260509210427 | 23 | 20 | 4.8 | 14.5 | 0.00 | 0.00 | 0.00 | 58 | 1025.8 |
| 20260509205928 | 23 | 342 | 4.8 | 14.5 | 0.00 | 0.00 | 0.00 | 59 | 1025.9 |
| 20260509205427 | 23 | 319 | 4.8 | 14.5 | 0.00 | 0.00 | 0.00 | 60 | 1025.9 |
| 20260509204928 | 23 | 321 | 3.2 | 12.9 | 0.00 | 0.00 | 0.00 | 59 | 1026.0 |
| 20260509204427 | 23 | 338 | 4.8 | 12.9 | 0.00 | 0.00 | 0.00 | 62 | 1025.9 |
| 20260509203933 | 22 | 255 | 4.8 | 9.7 | 0.00 | 0.00 | 0.00 | 60 | 1026.0 |
| 20260509203424 | 22 | 292 | 3.2 | 12.9 | 0.00 | 0.00 | 0.00 | 62 | 1026.2 |
| 20260509202923 | 22 | 0 | 4.8 | 12.9 | 0.00 | 0.00 | 0.00 | 62 | 1026.3 |
| 20260509202421 | 22 | 5 | 4.8 | 12.9 | 0.00 | 0.00 | 0.00 | 60 | 1026.3 |
| 20260509201921 | 22 | 265 | 4.8 | 12.9 | 0.00 | 0.00 | 0.00 | 62 | 1026.4 |
| 20260509201421 | 22 | 316 | 3.2 | 12.9 | 0.00 | 0.00 | 0.00 | 63 | 1026.6 |
| 20260509200921 | 22 | 345 | 4.8 | 14.5 | 0.00 | 0.00 | 0.00 | 60 | 1026.6 |
| 20260509200417 | 22 | 355 | 4.8 | 14.5 | 0.00 | 0.00 | 0.00 | 59 | 1026.7 |
| 20260509195916 | 22 | 34 | 3.2 | 12.9 | 0.00 | 0.00 | 0.00 | 60 | 1026.7 |
| 20260509195417 | 21 | 99 | 3.2 | 14.5 | 0.00 | 0.00 | 0.00 | 60 | 1027.0 |
| 20260509194915 | 21 | 277 | 4.8 | 14.5 | 0.00 | 0.00 | 0.00 | 62 | 1027.0 |
| 20260509194413 | 21 | 274 | 4.8 | 16.1 | 0.00 | 0.00 | 0.00 | 62 | 1027.0 |
| 20260509193913 | 21 | 31 | 4.8 | 16.1 | 0.00 | 0.00 | 0.00 | 62 | 1027.0 |
| 20260509193408 | 21 | 56 | 4.8 | 12.9 | 0.00 | 0.00 | 0.00 | 64 | 1027.2 |
| 20260509192908 | 21 | 0 | 4.8 | 9.7 | 0.00 | 0.00 | 0.00 | 66 | 1027.1 |
| 20260509192413 | 21 | 0 | 4.8 | 12.9 | 0.00 | 0.00 | 0.00 | 63 | 1027.1 |
| 20260509191911 | 21 | 0 | 4.8 | 14.5 | 0.00 | 0.00 | 0.00 | 66 | 1027.2 |
| 20260509191407 | 21 | 5 | 4.8 | 14.5 | 0.00 | 0.00 | 0.00 | 65 | 1027.3 |
| 20260509190907 | 21 | 27 | 4.8 | 12.9 | 0.00 | 0.00 | 0.00 | 66 | 1027.3 |
| 20260509190401 | 21 | 351 | 6.4 | 12.9 | 0.00 | 0.00 | 0.00 | 68 | 1027.3 |
| 20260509185901 | 21 | 26 | 4.8 | 12.9 | 0.00 | 0.00 | 0.00 | 67 | 1027.5 |
| 20260509185401 | 20 | 317 | 4.8 | 11.3 | 0.00 | 0.00 | 0.00 | 67 | 1027.4 |
| 20260509184901 | 20 | 351 | 4.8 | 11.3 | 0.00 | 0.00 | 0.00 | 67 | 1027.4 |
| 20260509184401 | 20 | 347 | 4.8 | 14.5 | 0.00 | 0.00 | 0.00 | 68 | 1027.6 |
| 20260509183902 | 20 | 0 | 4.8 | 14.5 | 0.00 | 0.00 | 0.00 | 68 | 1027.7 |
| 20260509183358 | 20 | 0 | 6.4 | 17.7 | 0.00 | 0.00 | 0.00 | 67 | 1027.8 |
| 20260509182857 | 19 | 23 | 4.8 | 17.7 | 0.00 | 0.00 | 0.00 | 69 | 1027.8 |
| 20260509182355 | 19 | 5 | 4.8 | 12.9 | 0.00 | 0.00 | 0.00 | 71 | 1027.9 |
| 20260509181855 | 19 | 83 | 6.4 | 14.5 | 0.00 | 0.00 | 0.00 | 69 | 1027.8 |
| 20260509181355 | 19 | 303 | 4.8 | 14.5 | 0.00 | 0.00 | 0.00 | 71 | 1027.9 |
| 20260509180856 | 18 | 289 | 6.4 | 14.5 | 0.00 | 0.00 | 0.00 | 72 | 1027.9 |
| 20260509180353 | 18 | 324 | 6.4 | 14.5 | 0.00 | 0.00 | 0.00 | 72 | 1027.9 |
| 20260509175851 | 18 | 231 | 4.8 | 12.9 | 0.00 | 0.00 | 0.00 | 72 | 1027.9 |
| 20260509175352 | 18 | 333 | 4.8 | 12.9 | 0.00 | 0.00 | 0.00 | 74 | 1027.9 |
| 20260509174853 | 18 | 325 | 4.8 | 14.5 | 0.00 | 0.00 | 0.00 | 74 | 1027.9 |
| 20260509174349 | 18 | 288 | 4.8 | 14.5 | 0.00 | 0.00 | 0.00 | 73 | 1027.8 |
| 20260509173850 | 18 | 0 | 4.8 | 14.5 | 0.00 | 0.00 | 0.00 | 74 | 1028.0 |
| 20260509173343 | 17 | 52 | 3.2 | 9.7 | 0.00 | 0.00 | 0.00 | 74 | 1028.0 |
| 20260509172843 | 17 | 252 | 4.8 | 9.7 | 0.00 | 0.00 | 0.00 | 75 | 1028.0 |
| 20260509172343 | 17 | 76 | 4.8 | 9.7 | 0.00 | 0.00 | 0.00 | 75 | 1028.1 |
| 20260509171843 | 17 | 69 | 4.8 | 9.7 | 0.00 | 0.00 | 0.00 | 77 | 1028.1 |
| 20260509171342 | 16 | 342 | 4.8 | 12.9 | 0.00 | 0.00 | 0.00 | 78 | 1028.2 |
| 20260509170844 | 16 | 321 | 4.8 | 12.9 | 0.00 | 0.00 | 0.00 | 77 | 1028.3 |
| 20260509170338 | 16 | 33 | 4.8 | 11.3 | 0.00 | 0.00 | 0.00 | 77 | 1028.3 |
| 20260509165837 | 16 | 17 | 3.2 | 8.0 | 0.00 | 0.00 | 0.00 | 80 | 1028.3 |
| 20260509165337 | 16 | 34 | 4.8 | 9.7 | 0.00 | 0.00 | 0.00 | 80 | 1028.3 |
| 20260509164837 | 15 | 12 | 3.2 | 9.7 | 0.00 | 0.00 | 0.00 | 80 | 1028.4 |
| 20260509164337 | 15 | 5 | 3.2 | 8.0 | 0.00 | 0.00 | 0.00 | 82 | 1028.4 |
| 20260509163837 | 15 | 70 | 4.8 | 9.7 | 0.00 | 0.00 | 0.00 | 81 | 1028.5 |
| 20260509163332 | 15 | 24 | 4.8 | 12.9 | 0.00 | 0.00 | 0.00 | 82 | 1028.7 |
| 20260509162831 | 15 | 290 | 4.8 | 12.9 | 0.00 | 0.00 | 0.00 | 82 | 1028.8 |
| 20260509162331 | 15 | 11 | 3.2 | 9.7 | 0.00 | 0.00 | 0.00 | 83 | 1028.9 |
| 20260509161831 | 15 | 284 | 3.2 | 8.0 | 0.00 | 0.00 | 0.00 | 83 | 1029.1 |
| 20260509161331 | 14 | 5 | 4.8 | 11.3 | 0.00 | 0.00 | 0.00 | 83 | 1029.1 |
| 20260509160832 | 14 | 31 | 4.8 | 11.3 | 0.00 | 0.00 | 0.00 | 83 | 1029.2 |
| 20260509160328 | 14 | 344 | 3.2 | 9.7 | 0.00 | 0.00 | 0.00 | 83 | 1029.1 |
| 20260509155826 | 13 | 259 | 3.2 | 8.0 | 0.00 | 0.00 | 0.00 | 84 | 1029.1 |
| 20260509155325 | 13 | 61 | 4.8 | 11.3 | 0.00 | 0.00 | 0.00 | 84 | 1029.0 |
| 20260509154826 | 13 | 52 | 4.8 | 14.5 | 0.00 | 0.00 | 0.00 | 84 | 1029.0 |
| 20260509154325 | 13 | 0 | 4.8 | 14.5 | 0.00 | 0.00 | 0.00 | 85 | 1029.0 |
| 20260509153826 | 13 | 47 | 4.8 | 12.9 | 0.00 | 0.00 | 0.00 | 86 | 1029.1 |
| 20260509153323 | 12 | 350 | 3.2 | 12.9 | 0.00 | 0.00 | 0.00 | 86 | 1029.2 |
| 20260509152820 | 12 | 58 | 3.2 | 14.5 | 0.00 | 0.00 | 0.00 | 87 | 1029.2 |
| 20260509152322 | 12 | 36 | 3.2 | 14.5 | 0.00 | 0.00 | 0.00 | 88 | 1029.2 |
| 20260509151820 | 12 | 34 | 3.2 | 9.7 | 0.00 | 0.00 | 0.00 | 88 | 1029.4 |
| 20260509151319 | 11 | 331 | 3.2 | 8.0 | 0.00 | 0.00 | 0.00 | 89 | 1029.4 |
| 20260509150819 | 11 | 311 | 3.2 | 8.0 | 0.00 | 0.00 | 0.00 | 89 | 1029.6 |
| 20260509150312 | 11 | 40 | 3.2 | 8.0 | 0.00 | 0.00 | 0.00 | 89 | 1029.5 |
| 20260509145812 | 11 | 51 | 3.2 | 9.7 | 0.00 | 0.00 | 0.00 | 89 | 1029.5 |
| 20260509145313 | 11 | 21 | 3.2 | 9.7 | 0.00 | 0.00 | 0.00 | 90 | 1029.5 |
| 20260509144813 | 11 | 0 | 1.6 | 6.4 | 0.00 | 0.00 | 0.00 | 90 | 1029.7 |
| 20260509144313 | 10 | 77 | 1.6 | 6.4 | 0.00 | 0.00 | 0.00 | 91 | 1029.7 |
| 20260509143813 | 10 | 105 | 1.6 | 4.8 | 0.00 | 0.00 | 0.00 | 91 | 1029.5 |
| 20260509143308 | 10 | 32 | 1.6 | 8.0 | 0.00 | 0.00 | 0.00 | 91 | 1029.5 |
| 20260509142807 | 10 | 355 | 1.6 | 8.0 | 0.00 | 0.00 | 0.00 | 92 | 1029.4 |
| 20260509142307 | 10 | 61 | 1.6 | 6.4 | 0.00 | 0.00 | 0.00 | 92 | 1029.5 |
| 20260509141806 | 10 | 55 | 0.0 | 6.4 | 0.00 | 0.00 | 0.00 | 93 | 1029.4 |
| 20260509141306 | 9 | 323 | 0.0 | 3.2 | 0.00 | 0.00 | 0.00 | 93 | 1029.4 |
| 20260509140807 | 9 | 0 | 0.0 | 3.2 | 0.00 | 0.00 | 0.00 | 93 | 1029.5 |
| 20260509140301 | 9 | 317 | 0.0 | 3.2 | 0.00 | 0.00 | 0.00 | 93 | 1029.6 |
| 20260509135800 | 8 | 317 | 0.0 | 1.6 | 0.00 | 0.00 | 0.00 | 94 | 1029.5 |
| 20260509135257 | 8 | 317 | 0.0 | 1.6 | 0.00 | 0.00 | 0.00 | 94 | 1029.6 |
| 20260509134755 | 8 | 323 | 0.0 | 1.6 | 0.00 | 0.00 | 0.00 | 93 | 1029.4 |
| 20260509134256 | 8 | 323 | 0.0 | 0.0 | 0.00 | 0.00 | 0.00 | 93 | 1029.4 |
| 20260509133752 | 7 | 323 | 0.0 | 0.0 | 0.00 | 0.00 | 0.00 | 93 | 1029.3 |
| 20260509133250 | 7 | 323 | 0.0 | 0.0 | 0.00 | 0.00 | 0.00 | 92 | 1029.4 |
| 20260509132752 | 7 | 323 | 0.0 | 0.0 | 0.00 | 0.00 | 0.00 | 92 | 1029.4 |
| 20260509132250 | 7 | 323 | 0.0 | 0.0 | 0.00 | 0.00 | 0.00 | 92 | 1029.4 |
| 20260509131749 | 7 | 323 | 0.0 | 0.0 | 0.00 | 0.00 | 0.00 | 92 | 1029.4 |
| 20260509131250 | 7 | 323 | 0.0 | 0.0 | 0.00 | 0.00 | 0.00 | 91 | 1029.4 |
| 20260509130744 | 7 | 323 | 0.0 | 0.0 | 0.00 | 0.00 | 0.00 | 91 | 1029.4 |
| 20260509130243 | 7 | 323 | 0.0 | 0.0 | 0.00 | 0.00 | 0.00 | 91 | 1029.4 |
| 20260509125742 | 7 | 323 | 0.0 | 0.0 | 0.00 | 0.00 | 0.00 | 91 | 1029.4 |
| 20260509125240 | 7 | 323 | 0.0 | 0.0 | 0.00 | 0.00 | 0.00 | 91 | 1029.3 |
| 20260509124741 | 8 | 323 | 0.0 | 0.0 | 0.00 | 0.00 | 0.00 | 91 | 1029.5 |
| 20260509124240 | 8 | 323 | 0.0 | 0.0 | 0.00 | 0.00 | 0.00 | 91 | 1029.4 |
| 20260509123740 | 8 | 322 | 0.0 | 0.0 | 0.00 | 0.00 | 0.00 | 91 | 1029.4 |
| 20260509123241 | 8 | 323 | 0.0 | 0.0 | 0.00 | 0.00 | 0.00 | 91 | 1029.3 |
| 20260509122741 | 8 | 323 | 0.0 | 1.6 | 0.00 | 0.00 | 0.00 | 91 | 1029.5 |
| 20260509122242 | 8 | 323 | 0.0 | 1.6 | 0.00 | 0.00 | 0.00 | 91 | 1029.5 |
| 20260509121740 | 8 | 323 | 0.0 | 1.6 | 0.00 | 0.00 | 0.00 | 91 | 1029.5 |
| 20260509121245 | 8 | 323 | 0.0 | 0.0 | 0.00 | 0.00 | 0.00 | 91 | 1029.7 |
| 20260509120742 | 8 | 323 | 0.0 | 1.6 | 0.00 | 0.00 | 0.00 | 91 | 1029.7 |
| 20260509120241 | 8 | 323 | 0.0 | 1.6 | 0.00 | 0.00 | 0.00 | 91 | 1029.5 |
| 20260509115736 | 9 | 323 | 0.0 | 0.0 | 0.00 | 0.00 | 0.00 | 90 | 1029.7 |
| 20260509115238 | 9 | 323 | 0.0 | 0.0 | 0.00 | 0.00 | 0.00 | 90 | 1029.7 |
| 20260509114736 | 9 | 323 | 0.0 | 0.0 | 0.00 | 0.00 | 0.00 | 90 | 1029.4 |
| 20260509114237 | 9 | 323 | 0.0 | 1.6 | 0.00 | 0.00 | 0.00 | 90 | 1029.7 |
| 20260509113738 | 9 | 0 | 0.0 | 1.6 | 0.00 | 0.00 | 0.00 | 90 | 1029.5 |
| 20260509113233 | 10 | 323 | 0.0 | 1.6 | 0.00 | 0.00 | 0.00 | 90 | 1029.5 |
| 20260509112733 | 10 | 323 | 0.0 | 1.6 | 0.00 | 0.00 | 0.00 | 90 | 1029.4 |
| 20260509112232 | 10 | 323 | 0.0 | 1.6 | 0.00 | 0.00 | 0.00 | 91 | 1029.5 |
| 20260509111732 | 10 | 323 | 0.0 | 3.2 | 0.00 | 0.00 | 0.00 | 91 | 1029.5 |
| 20260509111237 | 10 | 322 | 0.0 | 3.2 | 0.00 | 0.00 | 0.00 | 91 | 1029.5 |
| 20260509110732 | 10 | 323 | 0.0 | 4.8 | 0.00 | 0.00 | 0.00 | 91 | 1029.7 |
| 20260509110232 | 10 | 323 | 0.0 | 4.8 | 0.00 | 0.00 | 0.00 | 91 | 1029.7 |
| 20260509105732 | 10 | 323 | 0.0 | 4.8 | 0.00 | 0.00 | 0.00 | 91 | 1029.8 |
| 20260509105233 | 10 | 323 | 1.6 | 4.8 | 0.00 | 0.00 | 0.00 | 91 | 1030.0 |
| 20260509104729 | 10 | 323 | 1.6 | 4.8 | 0.00 | 0.00 | 0.00 | 91 | 1030.0 |
| 20260509104229 | 10 | 319 | 0.0 | 3.2 | 0.00 | 0.00 | 0.00 | 91 | 1030.0 |
| 20260509103729 | 10 | 319 | 1.6 | 4.8 | 0.00 | 0.00 | 0.00 | 91 | 1030.0 |
| 20260509103228 | 10 | 319 | 1.6 | 4.8 | 0.00 | 0.00 | 0.00 | 91 | 1030.1 |
| 20260509102726 | 10 | 0 | 0.0 | 3.2 | 0.00 | 0.00 | 0.00 | 91 | 1030.0 |
| 20260509102226 | 10 | 339 | 0.0 | 3.2 | 0.00 | 0.00 | 0.00 | 91 | 1030.0 |
| 20260509101723 | 10 | 340 | 0.0 | 3.2 | 0.00 | 0.00 | 0.00 | 90 | 1030.0 |
| 20260509101222 | 10 | 339 | 0.0 | 0.0 | 0.00 | 0.00 | 0.00 | 91 | 1029.9 |
| 20260509100720 | 10 | 0 | 0.0 | 0.0 | 0.00 | 0.00 | 0.00 | 90 | 1030.0 |
| 20260509100221 | 10 | 340 | 0.0 | 0.0 | 0.00 | 0.00 | 0.00 | 90 | 1030.0 |
| 20260509095720 | 10 | 339 | 0.0 | 0.0 | 0.00 | 0.00 | 0.00 | 90 | 1029.9 |
| 20260509095219 | 10 | 340 | 0.0 | 0.0 | 0.00 | 0.00 | 0.00 | 90 | 1030.1 |
| 20260509094718 | 10 | 0 | 0.0 | 0.0 | 0.00 | 0.00 | 0.00 | 90 | 1030.1 |
| 20260509094216 | 10 | 339 | 0.0 | 0.0 | 0.00 | 0.00 | 0.00 | 90 | 1030.0 |
| 20260509093714 | 10 | 339 | 0.0 | 1.6 | 0.00 | 0.00 | 0.00 | 90 | 1030.1 |
| 20260509093214 | 10 | 340 | 0.0 | 1.6 | 0.00 | 0.00 | 0.00 | 89 | 1030.1 |
| 20260509092714 | 11 | 340 | 0.0 | 3.2 | 0.00 | 0.00 | 0.00 | 89 | 1030.1 |
| 20260509092214 | 11 | 340 | 0.0 | 3.2 | 0.00 | 0.00 | 0.00 | 89 | 1030.3 |
| 20260509091712 | 11 | 340 | 0.0 | 3.2 | 0.00 | 0.00 | 0.00 | 89 | 1030.2 |
| 20260509091211 | 11 | 338 | 1.6 | 4.8 | 0.00 | 0.00 | 0.00 | 89 | 1030.2 |
| 20260509090711 | 11 | 341 | 1.6 | 4.8 | 0.00 | 0.00 | 0.00 | 89 | 1030.3 |
| 20260509090211 | 11 | 300 | 0.0 | 3.2 | 0.00 | 0.00 | 0.00 | 89 | 1030.3 |
| 20260509085708 | 11 | 300 | 0.0 | 3.2 | 0.00 | 0.00 | 0.00 | 89 | 1030.3 |
| 20260509085208 | 11 | 300 | 0.0 | 3.2 | 0.00 | 0.00 | 0.00 | 89 | 1030.4 |
| 20260509084703 | 11 | 300 | 1.6 | 4.8 | 0.00 | 0.00 | 0.00 | 89 | 1030.5 |
| 20260509084202 | 11 | 299 | 1.6 | 4.8 | 0.00 | 0.00 | 0.00 | 89 | 1030.4 |
| 20260509083702 | 11 | 298 | 0.0 | 3.2 | 0.00 | 0.00 | 0.00 | 89 | 1030.6 |
| 20260509083202 | 11 | 298 | 0.0 | 3.2 | 0.00 | 0.00 | 0.00 | 89 | 1030.6 |
| 20260509082702 | 11 | 299 | 1.6 | 3.2 | 0.00 | 0.00 | 0.00 | 88 | 1030.7 |
| 20260509082201 | 11 | 299 | 0.0 | 3.2 | 0.00 | 0.00 | 0.00 | 88 | 1030.7 |
| 20260509081659 | 11 | 299 | 0.0 | 3.2 | 0.00 | 0.00 | 0.00 | 88 | 1030.7 |
| 20260509081158 | 11 | 298 | 0.0 | 3.2 | 0.00 | 0.00 | 0.00 | 88 | 1030.8 |
| 20260509080656 | 11 | 297 | 0.0 | 3.2 | 0.00 | 0.00 | 0.00 | 87 | 1030.8 |
| 20260509080156 | 11 | 298 | 0.0 | 1.6 | 0.00 | 0.00 | 0.00 | 87 | 1030.8 |
| 20260509075656 | 12 | 297 | 0.0 | 3.2 | 0.00 | 0.00 | 0.00 | 87 | 1030.7 |
| 20260509075157 | 12 | 298 | 0.0 | 3.2 | 0.00 | 0.00 | 0.00 | 87 | 1030.7 |
| 20260509074654 | 12 | 298 | 1.6 | 3.2 | 0.00 | 0.00 | 0.00 | 87 | 1030.8 |
| 20260509074152 | 11 | 298 | 1.6 | 3.2 | 0.00 | 0.00 | 0.00 | 88 | 1030.8 |
| 20260509073653 | 11 | 300 | 0.0 | 4.8 | 0.00 | 0.00 | 0.00 | 88 | 1030.8 |
| 20260509073152 | 11 | 300 | 0.0 | 4.8 | 0.00 | 0.00 | 0.00 | 88 | 1030.9 |
| 20260509072650 | 11 | 275 | 0.0 | 3.2 | 0.00 | 0.00 | 0.00 | 87 | 1030.8 |
| 20260509072151 | 11 | 273 | 0.0 | 0.0 | 0.00 | 0.00 | 0.00 | 87 | 1030.8 |
| 20260509071649 | 12 | 274 | 0.0 | 0.0 | 0.00 | 0.00 | 0.00 | 87 | 1030.9 |
| 20260509071148 | 12 | 275 | 0.0 | 1.6 | 0.00 | 0.00 | 0.00 | 87 | 1030.7 |
| 20260509070649 | 12 | 274 | 0.0 | 1.6 | 0.00 | 0.00 | 0.00 | 87 | 1030.7 |
| 20260509070148 | 12 | 274 | 0.0 | 0.0 | 0.00 | 0.00 | 0.00 | 86 | 1030.7 |
| 20260509065648 | 12 | 273 | 0.0 | 0.0 | 0.00 | 0.00 | 0.00 | 85 | 1030.5 |
| 20260509065149 | 12 | 273 | 0.0 | 0.0 | 0.00 | 0.00 | 0.00 | 85 | 1030.5 |
| 20260509064647 | 12 | 275 | 0.0 | 0.0 | 0.00 | 0.00 | 0.00 | 85 | 1030.6 |
| 20260509064144 | 13 | 274 | 0.0 | 0.0 | 0.00 | 0.00 | 0.00 | 84 | 1030.6 |
| 20260509063642 | 13 | 275 | 0.0 | 0.0 | 0.00 | 0.00 | 0.00 | 83 | 1030.6 |
| 20260509063142 | 13 | 274 | 0.0 | 0.0 | 0.00 | 0.00 | 0.00 | 82 | 1030.7 |
| 20260509062643 | 13 | 274 | 0.0 | 0.0 | 0.00 | 0.00 | 0.00 | 82 | 1030.6 |
| 20260509062142 | 13 | 274 | 0.0 | 0.0 | 0.00 | 0.00 | 0.00 | 82 | 1030.6 |
| 20260509061643 | 13 | 274 | 0.0 | 1.6 | 0.00 | 0.00 | 0.00 | 81 | 1030.7 |
| 20260509061138 | 13 | 274 | 0.0 | 4.8 | 0.00 | 0.00 | 0.00 | 81 | 1030.6 |
| 20260509060639 | 14 | 274 | 1.6 | 4.8 | 0.00 | 0.00 | 0.00 | 81 | 1030.6 |
| 20260509060136 | 14 | 266 | 1.6 | 4.8 | 0.00 | 0.00 | 0.00 | 81 | 1030.6 |
| 20260509055636 | 14 | 269 | 1.6 | 4.8 | 0.00 | 0.00 | 0.00 | 81 | 1030.6 |
| 20260509055136 | 14 | 269 | 1.6 | 4.8 | 0.00 | 0.00 | 0.00 | 81 | 1030.8 |
| 20260509054636 | 14 | 308 | 0.0 | 3.2 | 0.00 | 0.00 | 0.00 | 80 | 1030.7 |
| 20260509054130 | 14 | 309 | 0.0 | 3.2 | 0.00 | 0.00 | 0.00 | 80 | 1030.7 |
| 20260509053630 | 14 | 308 | 1.6 | 4.8 | 0.00 | 0.00 | 0.00 | 80 | 1030.9 |
| 20260509053130 | 15 | 308 | 1.6 | 4.8 | 0.00 | 0.00 | 0.00 | 80 | 1030.7 |
| 20260509052629 | 15 | 258 | 1.6 | 4.8 | 0.00 | 0.00 | 0.00 | 79 | 1030.8 |
| 20260509052130 | 15 | 266 | 0.0 | 4.8 | 0.00 | 0.00 | 0.00 | 79 | 1030.7 |
| 20260509051631 | 15 | 294 | 0.0 | 3.2 | 0.00 | 0.00 | 0.00 | 79 | 1030.7 |
| 20260509051124 | 15 | 293 | 0.0 | 3.2 | 0.00 | 0.00 | 0.00 | 79 | 1030.6 |
| 20260509050622 | 15 | 294 | 1.6 | 4.8 | 0.00 | 0.00 | 0.00 | 78 | 1030.6 |
| 20260509050121 | 15 | 294 | 1.6 | 4.8 | 0.00 | 0.00 | 0.00 | 78 | 1030.5 |
| 20260509045618 | 15 | 294 | 1.6 | 4.8 | 0.00 | 0.00 | 0.00 | 78 | 1030.5 |
| 20260509045119 | 15 | 312 | 0.0 | 4.8 | 0.00 | 0.00 | 0.00 | 77 | 1030.5 |
| 20260509044613 | 15 | 284 | 1.6 | 6.4 | 0.00 | 0.00 | 0.00 | 77 | 1030.3 |
| 20260509044112 | 15 | 282 | 1.6 | 6.4 | 0.00 | 0.00 | 0.00 | 76 | 1030.3 |
| 20260509043612 | 16 | 305 | 3.2 | 6.4 | 0.00 | 0.00 | 0.00 | 76 | 1030.3 |
| 20260509043112 | 16 | 327 | 3.2 | 9.7 | 0.00 | 0.00 | 0.00 | 76 | 1030.3 |
| 20260509042612 | 16 | 243 | 3.2 | 9.7 | 0.00 | 0.00 | 0.00 | 76 | 1030.2 |
| 20260509042112 | 16 | 284 | 3.2 | 8.0 | 0.00 | 0.00 | 0.00 | 75 | 1030.2 |
| 20260509041607 | 16 | 346 | 3.2 | 8.0 | 0.00 | 0.00 | 0.00 | 75 | 1030.1 |
| 20260509041106 | 16 | 313 | 3.2 | 6.4 | 0.00 | 0.00 | 0.00 | 75 | 1030.2 |
| 20260509040605 | 16 | 302 | 3.2 | 9.7 | 0.00 | 0.00 | 0.00 | 74 | 1030.1 |
| 20260509040106 | 16 | 349 | 3.2 | 9.7 | 0.00 | 0.00 | 0.00 | 74 | 1030.1 |
| 20260509035606 | 16 | 355 | 1.6 | 6.4 | 0.00 | 0.00 | 0.00 | 74 | 1030.0 |
| 20260509035107 | 16 | 274 | 3.2 | 14.5 | 0.00 | 0.00 | 0.00 | 73 | 1030.0 |
| 20260509034601 | 16 | 0 | 3.2 | 14.5 | 0.00 | 0.00 | 0.00 | 73 | 1029.8 |
| 20260509034100 | 17 | 264 | 4.8 | 14.5 | 0.00 | 0.00 | 0.00 | 72 | 1029.9 |
| 20260509033559 | 17 | 257 | 3.2 | 14.5 | 0.00 | 0.00 | 0.00 | 72 | 1029.9 |
| 20260509033059 | 17 | 246 | 3.2 | 12.9 | 0.00 | 0.00 | 0.00 | 71 | 1029.9 |
| 20260509032600 | 17 | 311 | 3.2 | 9.7 | 0.00 | 0.00 | 0.00 | 71 | 1029.8 |
| 20260509032101 | 17 | 298 | 4.8 | 11.3 | 0.00 | 0.00 | 0.00 | 70 | 1029.9 |
| 20260509031555 | 17 | 271 | 4.8 | 12.9 | 0.00 | 0.00 | 0.00 | 70 | 1029.9 |